Location: Chimay
(50.0486°N, 4.3171°E)
Time: 20:28:25
(UTC+00:00)

Meteor 2-4 Rocket - Pass Details

Date: 08 August 2020
Orbit: 798 x 909 km, 81.2° (Epoch: 21 September)

Event Time Altitude Azimuth Distance (km) Brightness Sun altitude
Rises 21:07:49 0° 351° (N) 3,487 8.0 -15.3°
Reaches altitude 10° 21:10:27 10° 359° (N) 2,527 7.0 -15.6°
Maximum altitude 21:15:52 42° 69° (ENE) 1,210 4.4 -16.1°
Enters shadow 21:18:40 25° 124° (SE) 1,656 4.7 -16.4°
